INTELSAT 30 (IS-30)

Last updated on Tue Jul 01 2025 00:02:46 GMT+0000 (Coordinated Universal Time)

1 40271U 14062A 25181.54902762 -.00000151 00000+0 00000+0 0 9995 2 40271 0.0126 28.0698 0001575 355.6408 357.7292 1.00270930 3254
UTC large
Height (km)
Speed (km/s)
/
Latitude / Longitude
Inclination (degrees)
Orbital Period (minutes)
Azimuth
Elevation
Range (km)
Doppler Factor

Next 0 passes for location: London (51.5072 / 0.1276)

Sorry there are no passes over London.